Location: Courcelles
(49.2596°N, 1.7419°E)
Time: 21:58:17
(UTC+00:00)

SJ 16-02 - Pass Details

Date: 17 November 2025
Orbit: 585 x 594 km, 75.0° (Epoch: 05 December)

Event Time Altitude Azimuth Distance (km) Brightness Sun altitude
Rises 18:08:09 0° 190° (S) 2,824 5.0 -19.2°
Reaches altitude 10° 18:10:23 10° 187° (S) 1,926 4.0 -19.6°
Maximum altitude 18:14:37 61° 108° (ESE) 682 1.2 -20.3°
Enters shadow 18:15:12 54° 69° (ENE) 727 1.3 -20.4°
